Monterey, CA

11:04 PM PST on December 03, 2016 (GMT -0800)
Monterey Peninsula

Weather History for KMRY - March, 2012

Change the Weather History Date:

Sunday, March 25, 2012

  Actual Average Record
Temperature  
Mean Temperature 51 °F 53 °F  
Max Temperature 59 °F 61 °F 66 °F (2004)
Min Temperature 42 °F 46 °F 41 °F (2002)
Degree Days  
Heating Degree Days 14    
Month to date heating degree days 313  
Since 1 July heating degree days 2456  
Cooling Degree Days 0    
Month to date cooling degree days 0  
Year to date cooling degree days 0  
Moisture  
Dew Point 43 °F    
Average Humidity 73    
Maximum Humidity 89    
Minimum Humidity 57    
Precipitation  
Precipitation 0.22 in - 0.44 in (1999)
Month to date precipitation 2.61  
Year to date precipitation 4.60  
Since 1 July precipitation 8.40  
Sea Level Pressure  
Sea Level Pressure 29.87 in    
Wind  
Wind Speed 5 mph (SW)    
Max Wind Speed 15 mph    
Max Gust Speed 18 mph    
Visibility 10 miles    
Events Rain    
T = Trace of Precipitation, MM = Missing Value Source: NWS Daily Summary

Daily Weather History Graph

Daily Weather History Graph

Search for Another Location

Airport or City:

Trip Planner

Search our weather history database for the weather conditions in past years. The results will help you decide how hot, cold, wet, or windy it might be!

Date:

Astronomy

Mar. 25, 2012 Rise Set
Actual Time 7:02 AM PDT 7:24 PM PDT
Civil Twilight 6:36 AM PDT 7:49 PM PDT
Nautical Twilight 6:06 AM PDT 8:20 PM PDT
Astronomical Twilight 5:35 AM PDT 8:51 PM PDT
Moon 8:24 AM PDT (3/25) 10:37 PM PDT (3/25)
Length of Visible Light 13h 13m
Length of Day
12h 21m
Waxing Crescent, 9% of the Moon is Illuminated
Mar 25
Waxing Crescent
Mar 30
First Quarter
Apr 6
Full
Apr 13
Last Quarter
Apr 21
New

Hourly Weather History & Observations

Time (PDT) Temp. Windchill Dew Point Humidity Pressure Visibility Wind Dir Wind Speed Gust Speed Precip Events Conditions
12:54 AM 46.0 °F 41.9 °F 43.0 °F 89% 29.85 in 7.0 mi East 8.1 mph - 0.07 in Rain Rain
1:54 AM 46.9 °F - 43.0 °F 86% 29.85 in 5.0 mi East 3.5 mph - 0.15 in Rain Heavy Rain
2:54 AM 46.0 °F 44.8 °F 43.0 °F 89% 29.84 in 10.0 mi ENE 3.5 mph - 0.06 in   Overcast
4:08 AM 46.4 °F - 42.8 °F 87% 29.80 in 10.0 mi Calm Calm - 0.00 in Rain Light Rain
4:25 AM 46.4 °F - 42.8 °F 87% 29.80 in 10.0 mi Calm Calm - 0.00 in Rain Light Rain
4:54 AM 46.0 °F 44.8 °F 42.1 °F 86% 29.84 in 10.0 mi East 3.5 mph - 0.02 in   Overcast
5:54 AM 45.0 °F - 41.0 °F 86% 29.85 in 10.0 mi Calm Calm - N/A   Clear
6:54 AM 42.1 °F - 39.0 °F 89% 29.85 in 10.0 mi Calm Calm - N/A   Scattered Clouds
7:54 AM 44.1 °F - 39.9 °F 85% 29.86 in 10.0 mi Calm Calm - N/A   Mostly Cloudy
8:54 AM 48.0 °F - 43.0 °F 83% 29.86 in 10.0 mi Calm Calm - 0.00 in   Overcast
9:54 AM 51.1 °F - 45.0 °F 80% 29.88 in 10.0 mi Calm Calm - N/A   Mostly Cloudy
10:54 AM 54.0 °F - 43.0 °F 66% 29.88 in 10.0 mi Variable 3.5 mph - N/A   Scattered Clouds
11:54 AM 55.0 °F - 43.0 °F 64% 29.88 in 10.0 mi West 8.1 mph - N/A   Scattered Clouds
12:54 PM 57.0 °F - 42.1 °F 57% 29.86 in 10.0 mi West 8.1 mph - N/A   Scattered Clouds
1:54 PM 55.9 °F - 44.1 °F 64% 29.85 in 10.0 mi West 8.1 mph - N/A   Scattered Clouds
2:54 PM 57.9 °F - 43.0 °F 58% 29.83 in 10.0 mi West 10.4 mph - N/A   Clear
3:54 PM 57.9 °F - 42.1 °F 56% 29.83 in 10.0 mi West 11.5 mph - N/A   Scattered Clouds
4:54 PM 55.0 °F - 44.1 °F 67% 29.83 in 10.0 mi West 11.5 mph - N/A   Partly Cloudy
5:13 PM 53.6 °F - 44.6 °F 72% 29.80 in 10.0 mi West 10.4 mph - N/A   Mostly Cloudy
5:54 PM 54.0 °F - 42.1 °F 64% 29.85 in 10.0 mi West 5.8 mph - N/A   Mostly Cloudy
6:54 PM 53.1 °F - 42.1 °F 66% 29.86 in 10.0 mi Variable 5.8 mph - N/A   Scattered Clouds
7:54 PM 52.0 °F - 42.1 °F 69% 29.88 in 10.0 mi SSW 4.6 mph - N/A   Mostly Cloudy
8:54 PM 51.1 °F - 42.1 °F 71% 29.91 in 10.0 mi Variable 4.6 mph - N/A   Scattered Clouds
9:54 PM 50.0 °F - 43.0 °F 77% 29.94 in 10.0 mi SW 5.8 mph - N/A   Scattered Clouds
10:54 PM 48.9 °F - 43.0 °F 80% 29.96 in 10.0 mi SSW 6.9 mph - N/A   Partly Cloudy
11:15 PM 50.0 °F - 42.8 °F 76% 29.93 in 10.0 mi SW 8.1 mph - N/A   Mostly Cloudy
11:33 PM 50.0 °F - 42.8 °F 76% 29.94 in 10.0 mi SSW 5.8 mph - N/A   Mostly Cloudy
11:54 PM 48.9 °F - 43.0 °F 80% 29.98 in 10.0 mi South 4.6 mph - N/A   Mostly Cloudy